This demonstration page uses our WeatherBlox Daily Observations layout. Learn more.

Left ArrowRight Arrow

41.55636, -103.73856

Hourly Observations for April 5, 2015

Temp ( °F °C ) Dew Point ( °F °C ) Humidity (%) Winds ( mph kmh ) Pressure ( in mb ) Visibility ( mi km ) Precip ( " mm )
12:53 am 00:53 Clear 37 2.8 14 -10 39 39 E 9 15 29.80 1009 10 16 0.00 0.00
1:53 am 01:53 Clear 36 2.2 15 -9.4 42 42 NE 5 7 29.78 1008 10 16 0.00 0.00
2:53 am 02:53 Clear 31 -0.6 17 -8.3 56 56 NW 6 9 29.78 1009 10 16 0.00 0.00
3:53 am 03:53 Clear 28 -2.2 15 -9.4 58 58 NNW 9 15 29.77 1008 10 16 0.00 0.00
4:53 am 04:53 Clear 26 -3.3 14 -10 60 60 N 6 9 29.78 1008 10 16 0.00 0.00
5:53 am 05:53 Clear 29 -1.7 16 -8.9 58 58 SSW 3 6 29.77 1008 10 16 0.00 0.00
6:53 am 06:53 Sunny 27 -2.8 15 -9.4 61 61 WNW 7 11 29.80 1009 10 16 0.00 0.00
7:53 am 07:53 Sunny 35 1.7 18 -7.8 50 50 WNW 5 7 29.80 1009 10 16 0.00 0.00
8:53 am 08:53 Sunny 47 8.3 18 -7.8 31 31 WNW 9 15 29.76 1008 10 16 0.00 0.00
9:53 am 09:53 Sunny 53 11.7 18 -7.8 25 25 NW 10 17 29.78 1008 10 16 0.00 0.00
10:53 am 10:53 Sunny 59 15 15 -9.4 18 18 VRB 3 6 29.74 1007 10 16 0.00 0.00
11:53 am 11:53 Sunny 64 17.8 15 -9.4 15 15 VRB 7 11 29.70 1006 10 16 0.00 0.00
12:53 pm 12:53 Sunny 68 20 17 -8.3 14 14 SE 7 11 29.65 1004 10 16 0.00 0.00
1:53 pm 13:53 Sunny 72 22.2 16 -8.9 12 12 SSE 10 17 29.60 1003 10 16 0.00 0.00
2:53 pm 14:53 Sunny 74 23.3 13 -10.6 9 9 undefined N/A 29.56 1001 10 16 0.00 0.00
3:53 pm 15:53 Sunny 75 23.9 11 -11.7 8 8 S 7 11 29.54 1000 10 16 0.00 0.00
4:53 pm 16:53 Sunny 73 22.8 14 -10 10 10 SW 15 24 29.54 1000 10 16 0.00 0.00
5:53 pm 17:53 Sunny 72 22.2 15 -9.4 11 11 WSW 10 17 29.52 1000 10 16 0.00 0.00
6:53 pm 18:53 Sunny 71 21.7 15 -9.4 12 12 S 9 15 29.52 1000 10 16 0.00 0.00
7:53 pm 19:53 Clear 66 18.9 15 -9.4 14 14 NW 6 9 29.52 1000 10 16 0.00 0.00
8:53 pm 20:53 Clear 63 17.2 16 -8.9 16 16 SSW 7 11 29.53 1000 10 16 0.00 0.00
9:53 pm 21:53 Clear 58 14.4 20 -6.7 23 23 WSW 6 9 29.54 1000 10 16 0.00 0.00
10:53 pm 22:53 Clear 58 14.4 22 -5.6 25 25 SW 9 15 29.53 1000 10 16 0.00 0.00
11:53 pm 23:53 Clear 48 8.9 24 -4.4 39 39 NNE 7 11 29.57 1001 10 16 0.00 0.00

Powered by AerisWeather